Private Wetterstation Wechselburg
Wetterdaten: Sonntag, 25.12.2011
Datum Zeit Temp. +2m Bodentemp. Temp.+5cm Temp. Wind Windchill X Diff Temp. Feuchte +2m Feuchte +5cm Sonnenschein Luftdruck Regen Wind Richtung Richtung Sonnenschein UV Taupunkt Windchill Windben
25.12.2011 00:00 3,6 C 9,8 C 3,3 C 3,0 C 1,0 C 0,0 C 85 % 90 % 0 % 1029,5 hPa 0,0 l/m 8,5 km/h (2 Bft) W-SW 247 0 min 0,0 UV-I 1,3 C -1,7 C 9,8 km/h (2 Bft)
25.12.2011 00:11 3,6 C 9,9 C 3,3 C 3,0 C 0,7 C 0,0 C 84 % 89 % 0 % 1029,5 hPa 0,0 l/m 9,5 km/h (2 Bft) N 0 0 min 0,0 UV-I 1,2 C -2,3 C 16,7 km/h (3 Bft)
25.12.2011 00:20 3,5 C 9,9 C 3,2 C 2,6 C 0,7 C 0,0 C 84 % 89 % 0 % 1029,5 hPa 0,0 l/m 8,9 km/h (2 Bft) S-SW 202 0 min 0,0 UV-I 1,1 C -2,2 C 11,6 km/h (2 Bft)
25.12.2011 00:25 3,4 C 9,9 C 3,3 C 2,7 C 0,5 C 0,0 C 84 % 89 % 0 % 1029,5 hPa 0,0 l/m 9,2 km/h (2 Bft) W-SW 247 0 min 0,0 UV-I 1,0 C -2,5 C 18,3 km/h (3 Bft)
25.12.2011 00:30 3,5 C 9,9 C 3,2 C 2,7 C 0,3 C 0,0 C 84 % 89 % 0 % 1029,5 hPa 0,0 l/m 9,2 km/h (2 Bft) W-SW 247 0 min 0,0 UV-I 1,1 C -2,7 C 8,7 km/h (2 Bft)
25.12.2011 00:35 3,4 C 9,9 C 3,1 C 2,6 C 0,2 C 0,0 C 84 % 89 % 0 % 1029,5 hPa 0,0 l/m 8,9 km/h (2 Bft) SW 225 0 min 0,0 UV-I 1,0 C -2,8 C 11,9 km/h (2 Bft)
25.12.2011 00:40 3,3 C 9,9 C 3,1 C 2,5 C 0,1 C 0,0 C 84 % 89 % 0 % 1030,2 hPa 0,0 l/m 8,9 km/h (2 Bft) S-SW 202 0 min 0,0 UV-I 0,9 C -2,9 C 14,3 km/h (3 Bft)
25.12.2011 00:45 3,2 C 9,9 C 2,8 C 2,4 C -0,3 C 0,0 C 84 % 89 % 0 % 1030,2 hPa 0,0 l/m 8,9 km/h (2 Bft) W-SW 247 0 min 0,0 UV-I 0,8 C -3,4 C 8,0 km/h (2 Bft)
25.12.2011 00:50 3,1 C 9,9 C 2,8 C 2,2 C -0,5 C 0,0 C 84 % 89 % 0 % 1030,2 hPa 0,0 l/m 8,9 km/h (2 Bft) W-SW 247 0 min 0,0 UV-I 0,7 C -3,6 C 11,4 km/h (2 Bft)
25.12.2011 00:55 2,9 C 9,9 C 2,6 C 2,1 C -0,4 C 0,0 C 84 % 89 % 0 % 1030,2 hPa 0,0 l/m 8,0 km/h (2 Bft) SW 225 0 min 0,0 UV-I 0,5 C -3,2 C 10,3 km/h (2 Bft)
25.12.2011 01:00 2,8 C 9,9 C 2,7 C 1,9 C -0,7 C 0,0 C 84 % 89 % 0 % 1030,0 hPa 0,0 l/m 7,9 km/h (2 Bft) W 270 0 min 0,0 UV-I 0,4 C -3,5 C 10,8 km/h (2 Bft)
25.12.2011 01:04 2,7 C 9,9 C 2,5 C 1,9 C -0,7 C 0,0 C 84 % 89 % 0 % 1030,0 hPa 0,0 l/m 7,9 km/h (2 Bft) W-SW 247 0 min 0,0 UV-I 0,3 C -3,5 C 5,6 km/h (1 Bft)
25.12.2011 01:09 2,7 C 9,9 C 2,4 C 1,6 C -0,7 C 0,0 C 84 % 89 % 0 % 1030,0 hPa 0,0 l/m 7,6 km/h (2 Bft) W-SW 247 0 min 0,0 UV-I 0,3 C -3,4 C 9,3 km/h (2 Bft)
25.12.2011 01:14 2,6 C 9,9 C 2,3 C 1,5 C -0,8 C 0,0 C 85 % 89 % 0 % 1030,0 hPa 0,0 l/m 7,2 km/h (2 Bft) NW 315 0 min 0,0 UV-I 0,3 C -3,4 C 8,0 km/h (2 Bft)
25.12.2011 01:20 2,5 C 9,9 C 2,3 C 1,4 C -0,8 C 0,0 C 85 % 89 % 0 % 1030,1 hPa 0,0 l/m 7,4 km/h (2 Bft) W-SW 247 0 min 0,0 UV-I 0,2 C -3,5 C 6,1 km/h (2 Bft)
25.12.2011 01:25 2,4 C 9,9 C 2,3 C 1,4 C -0,6 C 0,0 C 85 % 90 % 0 % 1030,1 hPa 0,0 l/m 6,8 km/h (2 Bft) W-SW 247 0 min 0,0 UV-I 0,1 C -3,0 C 6,8 km/h (2 Bft)
25.12.2011 01:30 2,5 C 9,9 C 2,3 C 1,6 C -0,3 C 0,0 C 85 % 90 % 0 % 1030,1 hPa 0,0 l/m 6,1 km/h (2 Bft) W 270 0 min 0,0 UV-I 0,2 C -2,4 C 7,4 km/h (2 Bft)
25.12.2011 01:35 2,3 C 9,9 C 2,1 C 1,6 C 0,2 C 0,0 C 85 % 90 % 0 % 1030,1 hPa 0,0 l/m 4,5 km/h (1 Bft) S-SW 202 0 min 0,0 UV-I 0,0 C 0,2 C 2,7 km/h (1 Bft)
25.12.2011 01:40 2,2 C 9,9 C 2,1 C 1,7 C 0,6 C 0,0 C 85 % 90 % 0 % 1030,1 hPa 0,0 l/m 3,9 km/h (1 Bft) SW 225 0 min 0,0 UV-I -0,1 C 0,6 C 6,0 km/h (2 Bft)
25.12.2011 01:45 2,3 C 9,9 C 2,0 C 1,7 C 0,4 C 0,0 C 86 % 90 % 0 % 1030,1 hPa 0,0 l/m 4,2 km/h (1 Bft) S 180 0 min 0,0 UV-I 0,2 C 0,4 C 3,9 km/h (1 Bft)
25.12.2011 01:50 2,3 C 9,9 C 2,1 C 1,6 C 0,2 C 0,0 C 86 % 90 % 0 % 1030,1 hPa 0,0 l/m 4,5 km/h (1 Bft) W-SW 247 0 min 0,0 UV-I 0,2 C 0,2 C 9,2 km/h (2 Bft)
25.12.2011 01:55 2,1 C 9,9 C 2,0 C 1,7 C 0,8 C 0,0 C 86 % 90 % 0 % 1030,1 hPa 0,0 l/m 3,2 km/h (1 Bft) SO 135 0 min 0,0 UV-I 0,0 C 0,8 C 3,2 km/h (1 Bft)
25.12.2011 02:00 2,1 C 9,8 C 2,0 C 1,7 C 0,8 C 0,0 C 86 % 89 % 0 % 1030,1 hPa 0,0 l/m 3,1 km/h (1 Bft) SW 225 0 min 0,0 UV-I 0,0 C 0,8 C 0,0 km/h (0 Bft)
25.12.2011 02:15 2,1 C 9,8 C 2,0 C 1,1 C -0,9 C 0,0 C 85 % 89 % 0 % 1030,1 hPa 0,0 l/m 6,8 km/h (2 Bft) W 270 0 min 0,0 UV-I -0,2 C -3,4 C 9,8 km/h (2 Bft)
25.12.2011 02:25 2,3 C 9,8 C 2,0 C 1,3 C -0,7 C 0,0 C 84 % 89 % 0 % 1030,9 hPa 0,0 l/m 7,1 km/h (2 Bft) W-SW 247 0 min 0,0 UV-I -0,1 C -3,3 C 9,3 km/h (2 Bft)
25.12.2011 02:30 2,3 C 9,8 C 2,0 C 1,4 C -0,4 C 0,0 C 84 % 89 % 0 % 1030,9 hPa 0,0 l/m 6,9 km/h (2 Bft) SO 135 0 min 0,0 UV-I -0,1 C -2,8 C 3,9 km/h (1 Bft)
25.12.2011 02:35 2,3 C 9,7 C 2,2 C 1,6 C 0,1 C 0,0 C 84 % 89 % 0 % 1030,9 hPa 0,0 l/m 5,8 km/h (2 Bft) O-NO 67 0 min 0,0 UV-I -0,1 C -1,8 C 6,1 km/h (2 Bft)
25.12.2011 02:40 2,4 C 9,7 C 2,3 C 1,6 C -0,1 C 0,0 C 84 % 89 % 0 % 1031,1 hPa 0,0 l/m 6,1 km/h (2 Bft) W-NW 292 0 min 0,0 UV-I -0,0 C -2,2 C 8,4 km/h (2 Bft)
25.12.2011 02:45 2,4 C 9,7 C 2,2 C 1,6 C 0,0 C 0,0 C 84 % 88 % 0 % 1031,1 hPa 0,0 l/m 6,3 km/h (2 Bft) O-NO 67 0 min 0,0 UV-I -0,0 C -2,1 C 2,9 km/h (1 Bft)
25.12.2011 02:50 2,5 C 9,7 C 2,3 C 1,7 C 0,2 C 0,0 C 84 % 88 % 0 % 1031,1 hPa 0,0 l/m 5,5 km/h (1 Bft) O-SO 112 0 min 0,0 UV-I 0,1 C -1,6 C 5,8 km/h (2 Bft)
25.12.2011 02:55 2,4 C 9,7 C 2,3 C 1,9 C 1,0 C 0,0 C 84 % 88 % 0 % 1031,1 hPa 0,0 l/m 3,9 km/h (1 Bft) O-NO 67 0 min 0,0 UV-I -0,0 C 1,0 C 5,8 km/h (2 Bft)
25.12.2011 03:00 2,4 C 9,7 C 2,2 C 2,0 C 1,1 C 0,0 C 84 % 87 % 0 % 1030,9 hPa 0,0 l/m 3,7 km/h (1 Bft) W-SW 247 0 min 0,0 UV-I -0,0 C 1,1 C 2,9 km/h (1 Bft)
25.12.2011 03:15 2,3 C 9,7 C 2,3 C 1,8 C 0,8 C 0,0 C 84 % 88 % 0 % 1030,9 hPa 0,0 l/m 3,9 km/h (1 Bft) W-SW 247 0 min 0,0 UV-I -0,1 C 0,8 C 6,9 km/h (2 Bft)
25.12.2011 03:18 2,3 C 9,7 C 2,3 C 1,8 C 0,8 C 0,0 C 84 % 88 % 0 % 1030,9 hPa 0,0 l/m 3,9 km/h (1 Bft) W-SW 247 0 min 0,0 UV-I -0,1 C 0,8 C 6,9 km/h (2 Bft)
25.12.2011 03:20 2,3 C 9,7 C 2,3 C 1,8 C 0,8 C 0,0 C 84 % 88 % 0 % 1030,9 hPa 0,0 l/m 3,9 km/h (1 Bft) SO 135 0 min 0,0 UV-I -0,1 C 0,8 C 6,0 km/h (2 Bft)
25.12.2011 03:25 2,3 C 9,7 C 2,3 C 1,8 C 0,7 C 0,0 C 84 % 88 % 0 % 1030,9 hPa 0,0 l/m 4,0 km/h (1 Bft) S-SO 157 0 min 0,0 UV-I -0,1 C 0,7 C 8,5 km/h (2 Bft)
25.12.2011 03:30 2,4 C 9,7 C 2,3 C 1,7 C 0,3 C 0,0 C 84 % 87 % 0 % 1030,9 hPa 0,0 l/m 5,1 km/h (1 Bft) S-SO 157 0 min 0,0 UV-I -0,0 C -1,3 C 3,9 km/h (1 Bft)
25.12.2011 03:35 2,4 C 9,7 C 2,3 C 1,6 C 0,0 C 0,0 C 84 % 87 % 0 % 1030,9 hPa 0,0 l/m 6,0 km/h (2 Bft) W-SW 247 0 min 0,0 UV-I -0,0 C -2,0 C 11,1 km/h (2 Bft)
25.12.2011 03:40 2,5 C 9,7 C 2,3 C 1,8 C 0,5 C 0,0 C 84 % 87 % 0 % 1030,5 hPa 0,0 l/m 5,1 km/h (1 Bft) O-SO 112 0 min 0,0 UV-I 0,1 C -1,1 C 8,0 km/h (2 Bft)
25.12.2011 03:45 2,4 C 9,5 C 2,3 C 1,9 C 0,8 C 0,0 C 84 % 87 % 0 % 1030,5 hPa 0,0 l/m 4,3 km/h (1 Bft) NW 315 0 min 0,0 UV-I -0,0 C 0,8 C 4,3 km/h (1 Bft)
25.12.2011 03:50 2,4 C 9,7 C 2,3 C 1,9 C 0,9 C 0,0 C 84 % 87 % 0 % 1030,5 hPa 0,0 l/m 4,2 km/h (1 Bft) S 180 0 min 0,0 UV-I -0,0 C 0,9 C 5,1 km/h (1 Bft)
25.12.2011 03:55 2,5 C 9,5 C 2,4 C 2,0 C 1,1 C 0,0 C 83 % 87 % 0 % 1030,5 hPa 0,0 l/m 4,2 km/h (1 Bft) NO 45 0 min 0,0 UV-I -0,1 C 1,1 C 10,5 km/h (2 Bft)
25.12.2011 04:00 2,4 C 9,5 C 2,4 C 2,0 C 1,1 C 0,0 C 83 % 87 % 0 % 1031,0 hPa 0,0 l/m 4,0 km/h (1 Bft) W 270 0 min 0,0 UV-I -0,2 C 1,1 C 9,7 km/h (2 Bft)
25.12.2011 04:15 2,6 C 9,5 C 2,4 C 2,0 C 0,7 C 0,0 C 83 % 87 % 0 % 1031,0 hPa 0,0 l/m 5,6 km/h (1 Bft) W-SW 247 0 min 0,0 UV-I 0,0 C -1,1 C 12,7 km/h (3 Bft)
25.12.2011 04:18 2,6 C 9,5 C 2,4 C 2,0 C 0,7 C 0,0 C 83 % 87 % 0 % 1031,0 hPa 0,0 l/m 5,6 km/h (1 Bft) W-SW 247 0 min 0,0 UV-I 0,0 C -1,1 C 12,7 km/h (3 Bft)
25.12.2011 04:20 2,7 C 9,5 C 2,5 C 1,9 C 0,3 C 0,0 C 83 % 87 % 0 % 1030,4 hPa 0,0 l/m 7,4 km/h (2 Bft) SW 225 0 min 0,0 UV-I 0,1 C -2,2 C 11,6 km/h (2 Bft)
25.12.2011 04:25 2,8 C 9,5 C 2,7 C 2,2 C 0,1 C 0,0 C 83 % 87 % 0 % 1030,4 hPa 0,0 l/m 9,0 km/h (2 Bft) W 270 0 min 0,0 UV-I 0,2 C -2,9 C 18,8 km/h (3 Bft)
25.12.2011 04:30 2,8 C 9,5 C 2,6 C 2,2 C 0,2 C 0,0 C 82 % 87 % 0 % 1030,4 hPa 0,0 l/m 9,2 km/h (2 Bft) W-SW 247 0 min 0,0 UV-I 0,0 C -2,9 C 11,4 km/h (2 Bft)
25.12.2011 04:35 2,8 C 9,5 C 2,7 C 1,9 C 0,2 C 0,0 C 82 % 87 % 0 % 1030,4 hPa 0,0 l/m 9,3 km/h (2 Bft) S 180 0 min 0,0 UV-I 0,0 C -2,9 C 14,3 km/h (3 Bft)
25.12.2011 04:40 2,9 C 9,5 C 2,7 C 2,3 C 0,1 C 0,0 C 82 % 87 % 0 % 1030,4 hPa 0,0 l/m 9,7 km/h (2 Bft) W-SW 247 0 min 0,0 UV-I 0,1 C -3,1 C 10,8 km/h (2 Bft)
25.12.2011 04:45 3,0 C 9,5 C 2,8 C 2,4 C 0,3 C 0,0 C 82 % 86 % 0 % 1030,4 hPa 0,0 l/m 9,3 km/h (2 Bft) S-SW 202 0 min 0,0 UV-I 0,2 C -2,8 C 19,6 km/h (3 Bft)
25.12.2011 04:50 3,1 C 9,5 C 2,8 C 2,5 C 0,4 C 0,0 C 82 % 86 % 0 % 1030,4 hPa 0,0 l/m 8,9 km/h (2 Bft) W-SW 247 0 min 0,0 UV-I 0,3 C -2,5 C 14,0 km/h (3 Bft)
25.12.2011 04:55 3,1 C 9,5 C 2,9 C 2,4 C 0,9 C 0,0 C 82 % 86 % 0 % 1030,4 hPa 0,0 l/m 7,4 km/h (2 Bft) W 270 0 min 0,0 UV-I 0,3 C -1,5 C 6,1 km/h (2 Bft)
25.12.2011 05:00 3,0 C 9,5 C 2,8 C 2,3 C 1,0 C 0,0 C 82 % 86 % 0 % 1030,8 hPa 0,0 l/m 7,2 km/h (2 Bft) W 270 0 min 0,0 UV-I 0,2 C -1,3 C 10,3 km/h (2 Bft)
25.12.2011 05:15 3,1 C 9,5 C 2,9 C 2,8 C 2,1 C 0,0 C 82 % 86 % 0 % 1030,8 hPa 0,0 l/m 4,0 km/h (1 Bft) SW 225 0 min 0,0 UV-I 0,3 C 2,1 C 6,0 km/h (2 Bft)
25.12.2011 05:25 3,0 C 9,5 C 2,9 C 2,7 C 2,0 C 0,0 C 82 % 85 % 0 % 1030,2 hPa 0,0 l/m 4,0 km/h (1 Bft) S-SO 157 0 min 0,0 UV-I 0,2 C 2,0 C 8,7 km/h (2 Bft)
25.12.2011 05:30 3,0 C 9,5 C 2,9 C 2,6 C 1,9 C 0,0 C 82 % 85 % 0 % 1030,2 hPa 0,0 l/m 4,0 km/h (1 Bft) N-NW 337 0 min 0,0 UV-I 0,2 C 1,9 C 5,8 km/h (2 Bft)
25.12.2011 05:35 3,1 C 9,5 C 2,8 C 2,7 C 1,9 C 0,0 C 82 % 85 % 0 % 1030,2 hPa 0,0 l/m 3,9 km/h (1 Bft) W-SW 247 0 min 0,0 UV-I 0,3 C 1,9 C 5,8 km/h (2 Bft)
25.12.2011 05:40 3,0 C 9,5 C 2,8 C 2,6 C 1,9 C 0,0 C 82 % 85 % 0 % 1030,2 hPa 0,0 l/m 3,5 km/h (1 Bft) O 90 0 min 0,0 UV-I 0,2 C 1,9 C 3,4 km/h (1 Bft)
25.12.2011 05:45 2,9 C 9,5 C 2,8 C 2,5 C 1,6 C 0,0 C 82 % 85 % 0 % 1030,2 hPa 0,0 l/m 3,7 km/h (1 Bft) S-SO 157 0 min 0,0 UV-I 0,1 C 1,6 C 6,4 km/h (2 Bft)
25.12.2011 05:50 2,9 C 9,4 C 2,8 C 2,5 C 1,6 C 0,0 C 82 % 85 % 0 % 1030,2 hPa 0,0 l/m 3,4 km/h (1 Bft) SW 225 0 min 0,0 UV-I 0,1 C 1,6 C 4,2 km/h (1 Bft)
25.12.2011 05:55 2,9 C 9,4 C 2,8 C 2,5 C 1,7 C 0,0 C 82 % 85 % 0 % 1030,2 hPa 0,0 l/m 3,1 km/h (1 Bft) S 180 0 min 0,0 UV-I 0,1 C 1,7 C 6,9 km/h (2 Bft)
25.12.2011 06:00 2,9 C 9,5 C 2,7 C 2,5 C 1,7 C 0,0 C 82 % 85 % 0 % 1030,2 hPa 0,0 l/m 2,9 km/h (1 Bft) SW 225 0 min 0,0 UV-I 0,1 C 1,7 C 6,9 km/h (2 Bft)
25.12.2011 06:15 2,9 C 9,4 C 2,8 C 2,6 C 1,9 C 0,0 C 82 % 86 % 0 % 1030,2 hPa 0,0 l/m 3,4 km/h (1 Bft) SO 135 0 min 0,0 UV-I 0,1 C 1,9 C 3,5 km/h (1 Bft)
25.12.2011 06:18 2,9 C 9,4 C 2,8 C 2,6 C 1,9 C 0,0 C 82 % 86 % 0 % 1030,2 hPa 0,0 l/m 3,4 km/h (1 Bft) SO 135 0 min 0,0 UV-I 0,1 C 1,9 C 3,5 km/h (1 Bft)
25.12.2011 06:20 2,9 C 9,4 C 2,8 C 2,7 C 2,2 C 0,0 C 83 % 86 % 0 % 1030,3 hPa 0,0 l/m 3,2 km/h (1 Bft) W-NW 292 0 min 0,0 UV-I 0,3 C 2,2 C 2,9 km/h (1 Bft)
25.12.2011 06:25 2,9 C 9,4 C 2,9 C 2,5 C 1,8 C 0,0 C 83 % 86 % 0 % 1030,3 hPa 0,0 l/m 4,0 km/h (1 Bft) S 180 0 min 0,0 UV-I 0,3 C 1,8 C 5,1 km/h (1 Bft)
25.12.2011 06:30 2,9 C 9,5 C 2,8 C 2,5 C 1,6 C 0,0 C 83 % 86 % 0 % 1030,3 hPa 0,0 l/m 4,5 km/h (1 Bft) S 180 0 min 0,0 UV-I 0,3 C 1,6 C 5,0 km/h (1 Bft)
25.12.2011 06:35 3,1 C 9,4 C 2,9 C 2,7 C 1,9 C 0,0 C 83 % 86 % 0 % 1030,3 hPa 0,0 l/m 4,2 km/h (1 Bft) O-SO 112 0 min 0,0 UV-I 0,5 C 1,9 C 5,8 km/h (2 Bft)
25.12.2011 06:40 3,1 C 9,4 C 2,9 C 2,6 C 1,6 C 0,0 C 83 % 86 % 0 % 1030,3 hPa 0,0 l/m 4,8 km/h (1 Bft) N-NO 22 0 min 0,0 UV-I 0,5 C 0,3 C 4,8 km/h (1 Bft)
25.12.2011 06:45 3,1 C 9,4 C 3,0 C 2,5 C 1,4 C 0,0 C 82 % 86 % 0 % 1030,3 hPa 0,0 l/m 5,3 km/h (1 Bft) SO 135 0 min 0,0 UV-I 0,3 C -0,1 C 10,5 km/h (2 Bft)
25.12.2011 06:50 3,0 C 9,5 C 2,9 C 2,4 C 1,3 C 0,0 C 82 % 86 % 0 % 1030,3 hPa 0,0 l/m 5,1 km/h (1 Bft) O-NO 67 0 min 0,0 UV-I 0,2 C -0,2 C 4,2 km/h (1 Bft)
25.12.2011 06:55 3,1 C 9,4 C 2,8 C 2,6 C 1,5 C 0,0 C 83 % 86 % 0 % 1030,3 hPa 0,0 l/m 4,2 km/h (1 Bft) SW 225 0 min 0,0 UV-I 0,5 C 1,5 C 10,5 km/h (2 Bft)
25.12.2011 07:00 3,0 C 9,4 C 2,8 C 2,5 C 1,5 C 0,0 C 83 % 86 % 0 % 1030,3 hPa 0,0 l/m 3,9 km/h (1 Bft) SW 225 0 min 0,0 UV-I 0,4 C 1,5 C 2,7 km/h (1 Bft)
25.12.2011 07:15 2,9 C 9,4 C 2,9 C 2,4 C 1,3 C 0,0 C 83 % 86 % 0 % 1030,3 hPa 0,0 l/m 4,5 km/h (1 Bft) SW 225 0 min 0,0 UV-I 0,3 C 1,3 C 11,6 km/h (2 Bft)
25.12.2011 07:25 2,9 C 9,4 C 2,8 C 2,5 C 1,6 C 0,0 C 83 % 87 % 0 % 1031,1 hPa 0,0 l/m 4,5 km/h (1 Bft) W-SW 247 0 min 0,0 UV-I 0,3 C 1,6 C 8,5 km/h (2 Bft)
25.12.2011 07:30 3,1 C 9,4 C 2,8 C 2,6 C 1,7 C 0,0 C 83 % 87 % 0 % 1031,1 hPa 0,0 l/m 4,5 km/h (1 Bft) NW 315 0 min 0,0 UV-I 0,5 C 1,7 C 3,9 km/h (1 Bft)
25.12.2011 07:35 3,1 C 9,4 C 2,9 C 2,6 C 1,6 C 0,0 C 83 % 87 % 0 % 1031,1 hPa 0,0 l/m 4,8 km/h (1 Bft) W 270 0 min 0,0 UV-I 0,5 C 0,3 C 3,7 km/h (1 Bft)
25.12.2011 07:40 3,1 C 9,4 C 2,9 C 2,6 C 1,7 C 0,0 C 83 % 86 % 0 % 1031,0 hPa 0,0 l/m 5,0 km/h (1 Bft) O-SO 112 0 min 0,0 UV-I 0,5 C 0,3 C 9,8 km/h (2 Bft)
25.12.2011 07:45 3,1 C 9,4 C 3,1 C 2,5 C 1,2 C 0,0 C 83 % 86 % 0 % 1031,0 hPa 0,0 l/m 6,3 km/h (2 Bft) W-SW 247 0 min 0,0 UV-I 0,5 C -0,8 C 14,0 km/h (3 Bft)
25.12.2011 07:50 3,1 C 9,4 C 3,0 C 2,4 C 1,0 C 0,0 C 83 % 87 % 0 % 1031,0 hPa 0,0 l/m 6,8 km/h (2 Bft) S-SW 202 0 min 0,0 UV-I 0,5 C -1,2 C 10,6 km/h (2 Bft)
25.12.2011 07:55 3,1 C 9,4 C 3,1 C 2,5 C 1,4 C 0,0 C 83 % 87 % 0 % 1031,0 hPa 0,0 l/m 5,6 km/h (1 Bft) N-NO 22 0 min 0,0 UV-I 0,5 C -0,3 C 4,2 km/h (1 Bft)
25.12.2011 08:00 3,1 C 9,4 C 3,1 C 2,6 C 1,6 C 0,0 C 83 % 87 % 0 % 1031,0 hPa 0,0 l/m 5,6 km/h (1 Bft) SW 225 0 min 0,0 UV-I 0,5 C -0,0 C 9,3 km/h (2 Bft)
25.12.2011 08:15 3,2 C 9,4 C 3,1 C 2,7 C 1,6 C 0,0 C 83 % 86 % 0 % 1031,0 hPa 0,0 l/m 6,3 km/h (2 Bft) W 270 0 min 0,0 UV-I 0,6 C -0,3 C 11,7 km/h (2 Bft)
25.12.2011 08:18 3,2 C 9,4 C 3,1 C 2,7 C 1,6 C 0,0 C 83 % 86 % 0 % 1031,0 hPa 0,0 l/m 6,3 km/h (2 Bft) W 270 0 min 0,0 UV-I 0,6 C -0,3 C 11,7 km/h (2 Bft)
25.12.2011 08:25 3,2 C 9,4 C 3,2 C 2,8 C 2,1 C 0,0 C 83 % 86 % 0 % 1030,8 hPa 0,0 l/m 4,8 km/h (1 Bft) S-SO 157 0 min 0,0 UV-I 0,6 C 0,9 C 12,2 km/h (2 Bft)
25.12.2011 08:30 3,3 C 9,4 C 3,3 C 3,0 C 2,3 C 0,0 C 83 % 86 % 0 % 1030,8 hPa 0,0 l/m 4,5 km/h (1 Bft) S-SO 157 0 min 0,0 UV-I 0,7 C 2,3 C 16,9 km/h (3 Bft)
25.12.2011 08:35 3,3 C 9,4 C 3,2 C 2,9 C 2,0 C 0,0 C 83 % 86 % 0 % 1030,8 hPa 0,0 l/m 5,3 km/h (1 Bft) W-SW 247 0 min 0,0 UV-I 0,7 C 0,6 C 9,0 km/h (2 Bft)
25.12.2011 08:40 3,3 C 9,4 C 3,2 C 2,9 C 2,1 C 0,0 C 83 % 86 % 0 % 1030,8 hPa 0,0 l/m 5,1 km/h (1 Bft) N 360 0 min 0,0 UV-I 0,7 C 0,7 C 3,7 km/h (1 Bft)
25.12.2011 08:45 3,5 C 9,4 C 3,3 C 3,0 C 1,9 C 0,0 C 83 % 86 % 0 % 1030,8 hPa 0,0 l/m 5,8 km/h (2 Bft) S-SO 157 0 min 0,0 UV-I 0,9 C 0,2 C 12,1 km/h (2 Bft)
25.12.2011 08:50 3,5 C 9,4 C 3,3 C 3,0 C 1,9 C 0,0 C 83 % 86 % 0 % 1030,8 hPa 0,0 l/m 6,1 km/h (2 Bft) NW 315 0 min 0,0 UV-I 0,9 C 0,1 C 3,1 km/h (1 Bft)
25.12.2011 08:55 3,5 C 9,4 C 3,5 C 3,0 C 2,1 C 0,0 C 83 % 86 % 0 % 1030,8 hPa 0,0 l/m 6,0 km/h (2 Bft) W-SW 247 0 min 0,0 UV-I 0,9 C 0,4 C 9,2 km/h (2 Bft)
25.12.2011 09:00 3,5 C 9,4 C 3,5 C 3,2 C 2,6 C 0,0 C 83 % 86 % 0 % 1030,8 hPa 0,0 l/m 4,8 km/h (1 Bft) W 270 0 min 0,0 UV-I 0,9 C 1,4 C 7,4 km/h (2 Bft)
25.12.2011 09:11 3,6 C 9,4 C 3,5 C 3,1 C 2,0 C 0,0 C 82 % 86 % 0 % 1030,8 hPa 0,0 l/m 6,8 km/h (2 Bft) N 0 0 min 0,0 UV-I 0,8 C -0,0 C 6,1 km/h (2 Bft)
25.12.2011 09:25 3,6 C 9,4 C 3,6 C 3,2 C 1,2 C 0,0 C 82 % 86 % 0 % 1030,9 hPa 0,0 l/m 10,1 km/h (2 Bft) W-SW 247 0 min 0,0 UV-I 0,8 C -1,9 C 12,2 km/h (2 Bft)
25.12.2011 09:30 3,7 C 9,4 C 3,6 C 3,1 C 0,8 C 0,0 C 82 % 86 % 0 % 1030,9 hPa 0,0 l/m 11,6 km/h (2 Bft) NW 315 0 min 0,0 UV-I 0,9 C -2,7 C 5,0 km/h (1 Bft)
25.12.2011 09:35 3,7 C 9,5 C 3,6 C 3,1 C 1,2 C 0,0 C 83 % 86 % 0 % 1030,9 hPa 0,0 l/m 9,8 km/h (2 Bft) W-SW 247 0 min 0,0 UV-I 1,1 C -1,8 C 23,3 km/h (4 Bft)
25.12.2011 09:40 3,7 C 9,5 C 3,5 C 3,1 C 1,0 C 0,0 C 83 % 86 % 0 % 1032,0 hPa 0,0 l/m 10,5 km/h (2 Bft) W-SW 247 0 min 0,0 UV-I 1,1 C -2,2 C 12,7 km/h (3 Bft)
25.12.2011 09:45 3,6 C 9,6 C 3,6 C 3,0 C 1,1 C 0,0 C 84 % 87 % 0 % 1032,0 hPa 0,0 l/m 9,0 km/h (2 Bft) S 180 0 min 0,0 UV-I 1,2 C -1,7 C 24,3 km/h (4 Bft)
25.12.2011 09:50 3,6 C 9,5 C 3,6 C 3,0 C 1,7 C 0,0 C 84 % 87 % 0 % 1032,0 hPa 0,0 l/m 6,8 km/h (2 Bft) SW 225 0 min 0,0 UV-I 1,2 C -0,4 C 12,6 km/h (3 Bft)
25.12.2011 09:55 3,7 C 9,6 C 3,6 C 3,0 C 1,7 C 0,0 C 84 % 87 % 0 % 1032,0 hPa 0,0 l/m 7,1 km/h (2 Bft) O-NO 67 0 min 0,0 UV-I 1,3 C -0,5 C 6,6 km/h (2 Bft)
25.12.2011 10:00 3,7 C 9,7 C 3,6 C 3,2 C 1,3 C 0,0 C 85 % 87 % 0 % 1032,0 hPa 0,0 l/m 8,0 km/h (2 Bft) SW 225 0 min 0,0 UV-I 1,4 C -1,2 C 15,1 km/h (3 Bft)
25.12.2011 10:10 3,6 C 9,7 C 3,5 C 2,9 C 1,4 C 0,0 C 85 % 89 % 0 % 1032,0 hPa 0,0 l/m 7,1 km/h (2 Bft) N 0 0 min 0,0 UV-I 1,3 C -0,8 C 5,8 km/h (2 Bft)
25.12.2011 10:25 3,7 C 9,7 C 3,5 C 3,2 C 2,1 C 0,0 C 86 % 91 % 0 % 1032,0 hPa 0,0 l/m 5,0 km/h (1 Bft) N-NW 337 0 min 0,0 UV-I 1,6 C 0,8 C 4,7 km/h (1 Bft)
25.12.2011 10:30 3,6 C 9,7 C 3,4 C 3,0 C 1,9 C 0,0 C 86 % 91 % 0 % 1032,0 hPa 0,0 l/m 5,3 km/h (1 Bft) W-SW 247 0 min 0,0 UV-I 1,5 C 0,4 C 6,0 km/h (2 Bft)
25.12.2011 10:35 3,6 C 9,6 C 3,5 C 3,0 C 1,8 C 0,0 C 86 % 91 % 0 % 1032,0 hPa 0,0 l/m 5,8 km/h (2 Bft) W 270 0 min 0,0 UV-I 1,5 C 0,1 C 8,7 km/h (2 Bft)
25.12.2011 10:40 3,7 C 9,7 C 3,5 C 3,0 C 1,7 C 0,0 C 86 % 91 % 0 % 1031,1 hPa 0,0 l/m 6,6 km/h (2 Bft) W-SW 247 0 min 0,0 UV-I 1,6 C -0,3 C 12,6 km/h (3 Bft)
25.12.2011 10:45 3,7 C 9,7 C 3,5 C 3,1 C 1,9 C 0,0 C 86 % 92 % 0 % 1031,1 hPa 0,0 l/m 6,1 km/h (2 Bft) W-SW 247 0 min 0,0 UV-I 1,6 C 0,1 C 7,1 km/h (2 Bft)
25.12.2011 10:50 3,7 C 9,7 C 3,5 C 3,1 C 1,9 C 0,0 C 86 % 92 % 0 % 1031,1 hPa 0,0 l/m 6,1 km/h (2 Bft) NO 45 0 min 0,0 UV-I 1,6 C 0,1 C 4,3 km/h (1 Bft)
25.12.2011 10:55 3,7 C 9,7 C 3,6 C 3,2 C 2,2 C 0,0 C 86 % 92 % 0 % 1031,1 hPa 0,7 l/m 5,5 km/h (1 Bft) O-NO 67 0 min 0,0 UV-I 1,6 C 0,7 C 4,0 km/h (1 Bft)
25.12.2011 11:00 3,9 C 9,7 C 3,5 C 3,4 C 2,4 C 0,0 C 86 % 92 % 0 % 1031,3 hPa 0,0 l/m 5,3 km/h (1 Bft) SO 135 0 min 0,0 UV-I 1,8 C 1,0 C 8,9 km/h (2 Bft)
25.12.2011 11:10 3,9 C 9,7 C 3,6 C 3,4 C 2,5 C 0,0 C 87 % 92 % 0 % 1031,3 hPa 0,0 l/m 5,5 km/h (1 Bft) N 0 0 min 0,0 UV-I 1,9 C 1,0 C 5,8 km/h (2 Bft)
25.12.2011 11:25 4,1 C 9,7 C 3,7 C 3,5 C 2,2 C 0,0 C 86 % 92 % 0 % 1031,5 hPa 0,0 l/m 7,4 km/h (2 Bft) W-SW 247 0 min 0,0 UV-I 2,0 C 0,0 C 8,2 km/h (2 Bft)
25.12.2011 11:30 4,0 C 9,7 C 3,7 C 3,6 C 2,1 C 0,0 C 86 % 92 % 0 % 1031,5 hPa 0,0 l/m 7,9 km/h (2 Bft) W 270 0 min 0,0 UV-I 1,9 C -0,2 C 6,4 km/h (2 Bft)
25.12.2011 11:35 4,1 C 9,7 C 3,8 C 3,6 C 2,5 C 0,0 C 86 % 92 % 0 % 1031,5 hPa 0,0 l/m 7,6 km/h (2 Bft) W 270 0 min 0,0 UV-I 2,0 C 0,3 C 4,0 km/h (1 Bft)
25.12.2011 11:40 4,2 C 9,7 C 3,9 C 3,7 C 2,8 C 0,0 C 86 % 92 % 0 % 1031,6 hPa 0,0 l/m 6,9 km/h (2 Bft) W 270 0 min 0,0 UV-I 2,1 C 0,9 C 9,7 km/h (2 Bft)
25.12.2011 11:45 4,3 C 9,6 C 4,0 C 4,0 C 3,3 C 0,0 C 86 % 92 % 0 % 1031,6 hPa 0,0 l/m 6,0 km/h (2 Bft) S-SO 157 0 min 0,0 UV-I 2,2 C 1,8 C 4,0 km/h (1 Bft)
25.12.2011 11:50 4,3 C 9,6 C 4,1 C 3,9 C 3,0 C 0,0 C 86 % 92 % 0 % 1031,6 hPa 0,0 l/m 6,8 km/h (2 Bft) S-SO 157 0 min 0,2 UV-I 2,2 C 1,1 C 20,8 km/h (4 Bft)
25.12.2011 11:55 4,4 C 9,6 C 4,1 C 4,0 C 2,3 C 0,0 C 85 % 92 % 0 % 1031,6 hPa 0,0 l/m 9,3 km/h (2 Bft) W-SW 247 0 min 0,0 UV-I 2,1 C -0,4 C 19,3 km/h (3 Bft)
25.12.2011 12:00 4,5 C 9,6 C 4,2 C 4,0 C 1,9 C 0,0 C 85 % 92 % 0 % 1030,9 hPa 0,0 l/m 11,1 km/h (2 Bft) SW 225 0 min 0,0 UV-I 2,2 C -1,3 C 15,4 km/h (3 Bft)
25.12.2011 12:10 4,5 C 9,6 C 4,2 C 4,0 C 2,4 C 0,0 C 84 % 92 % 0 % 1030,9 hPa 0,0 l/m 9,2 km/h (2 Bft) N 0 0 min 0,0 UV-I 2,0 C -0,2 C 8,9 km/h (2 Bft)
25.12.2011 12:25 4,7 C 9,6 C 4,4 C 4,2 C 3,3 C 0,0 C 85 % 92 % 0 % 1031,0 hPa 0,0 l/m 7,6 km/h (2 Bft) S 180 0 min 0,0 UV-I 2,4 C 1,3 C 9,8 km/h (2 Bft)
25.12.2011 12:30 4,7 C 9,6 C 4,5 C 4,3 C 3,6 C 0,0 C 85 % 92 % 0 % 1031,0 hPa 0,0 l/m 7,6 km/h (2 Bft) W-SW 247 0 min 0,0 UV-I 2,4 C 1,6 C 9,2 km/h (2 Bft)
25.12.2011 12:35 4,7 C 9,7 C 4,7 C 4,5 C 3,3 C 0,0 C 85 % 92 % 0 % 1031,0 hPa 0,0 l/m 8,9 km/h (2 Bft) W 270 0 min 0,0 UV-I 2,4 C 0,9 C 16,1 km/h (3 Bft)
25.12.2011 12:40 4,8 C 9,7 C 4,5 C 4,5 C 2,8 C 0,0 C 85 % 92 % 0 % 1031,0 hPa 0,0 l/m 10,3 km/h (2 Bft) SW 225 0 min 0,0 UV-I 2,5 C -0,0 C 10,0 km/h (2 Bft)
25.12.2011 12:45 4,7 C 9,7 C 4,7 C 4,3 C 2,9 C 0,0 C 86 % 92 % 0 % 1031,0 hPa 0,0 l/m 9,5 km/h (2 Bft) W 270 0 min 0,0 UV-I 2,6 C 0,3 C 5,6 km/h (1 Bft)
25.12.2011 12:50 4,8 C 9,7 C 4,7 C 4,5 C 3,2 C 0,0 C 86 % 92 % 0 % 1031,0 hPa 0,0 l/m 8,9 km/h (2 Bft) W-SW 247 0 min 0,0 UV-I 2,7 C 0,8 C 9,0 km/h (2 Bft)
25.12.2011 12:55 4,8 C 9,7 C 4,8 C 4,5 C 3,1 C 0,0 C 86 % 92 % 0 % 1031,0 hPa 0,0 l/m 9,7 km/h (2 Bft) SW 225 0 min 0,0 UV-I 2,7 C 0,5 C 19,6 km/h (3 Bft)
25.12.2011 13:00 4,9 C 9,7 C 4,8 C 4,3 C 3,1 C 0,0 C 86 % 92 % 0 % 1031,0 hPa 0,0 l/m 9,8 km/h (2 Bft) SW 225 0 min 0,0 UV-I 2,8 C 0,4 C 15,9 km/h (3 Bft)
25.12.2011 13:04 4,9 C 9,8 C 4,8 C 4,2 C 2,9 C 0,0 C 86 % 92 % 0 % 1031,0 hPa 0,0 l/m 9,8 km/h (2 Bft) W 270 0 min 0,0 UV-I 2,8 C 0,2 C 12,9 km/h (3 Bft)
25.12.2011 13:09 4,9 C 9,7 C 4,8 C 4,5 C 2,7 C 0,0 C 86 % 92 % 0 % 1031,0 hPa 0,0 l/m 10,3 km/h (2 Bft) S 180 0 min 0,0 UV-I 2,8 C -0,2 C 11,1 km/h (2 Bft)
25.12.2011 13:14 4,9 C 9,7 C 4,7 C 4,2 C 2,7 C 0,0 C 86 % 92 % 0 % 1031,0 hPa 0,0 l/m 10,6 km/h (2 Bft) W-SW 247 0 min 0,0 UV-I 2,8 C -0,2 C 14,2 km/h (3 Bft)
25.12.2011 13:19 4,8 C 9,7 C 4,7 C 4,3 C 2,5 C 0,0 C 85 % 92 % 0 % 1031,5 hPa 0,0 l/m 10,6 km/h (2 Bft) SW 225 0 min 0,0 UV-I 2,5 C -0,5 C 13,4 km/h (3 Bft)
25.12.2011 13:25 4,8 C 9,7 C 4,7 C 4,0 C 2,5 C 0,0 C 86 % 92 % 0 % 1031,5 hPa 0,0 l/m 10,6 km/h (2 Bft) W-SW 247 0 min 0,0 UV-I 2,7 C -0,5 C 10,0 km/h (2 Bft)
25.12.2011 13:30 4,9 C 9,7 C 4,7 C 4,1 C 2,5 C 0,0 C 86 % 92 % 0 % 1031,5 hPa 0,0 l/m 10,8 km/h (2 Bft) SW 225 0 min 1,4 UV-I 2,8 C -0,5 C 11,7 km/h (2 Bft)
25.12.2011 13:35 4,9 C 9,7 C 4,7 C 4,4 C 2,4 C 0,0 C 86 % 92 % 0 % 1031,5 hPa 0,0 l/m 11,3 km/h (2 Bft) S 180 0 min 0,3 UV-I 2,8 C -0,7 C 21,1 km/h (4 Bft)
25.12.2011 13:40 4,9 C 9,8 C 4,7 C 4,4 C 2,7 C 0,0 C 86 % 92 % 0 % 1031,5 hPa 0,0 l/m 10,5 km/h (2 Bft) W-NW 292 0 min 0,2 UV-I 2,8 C -0,2 C 4,8 km/h (1 Bft)
25.12.2011 13:45 4,9 C 9,7 C 4,8 C 4,2 C 2,7 C 0,0 C 85 % 92 % 0 % 1031,5 hPa 0,0 l/m 10,3 km/h (2 Bft) SW 225 0 min 0,5 UV-I 2,6 C -0,2 C 16,6 km/h (3 Bft)
25.12.2011 13:50 4,9 C 9,7 C 4,8 C 4,4 C 2,6 C 0,0 C 85 % 92 % 0 % 1031,5 hPa 0,0 l/m 10,8 km/h (2 Bft) O 90 0 min 0,1 UV-I 2,6 C -0,4 C 18,8 km/h (3 Bft)
25.12.2011 13:55 5,1 C 9,7 C 4,8 C 4,5 C 2,4 C 0,0 C 85 % 92 % 0 % 1031,5 hPa 0,0 l/m 12,1 km/h (2 Bft) SW 225 0 min 0,4 UV-I 2,8 C -0,9 C 17,1 km/h (3 Bft)
25.12.2011 14:00 5,1 C 9,7 C 4,8 C 4,5 C 2,5 C 0,0 C 85 % 92 % 0 % 1031,1 hPa 0,0 l/m 12,1 km/h (2 Bft) W-SW 247 0 min 0,2 UV-I 2,8 C -0,8 C 10,3 km/h (2 Bft)
25.12.2011 14:10 5,1 C 9,8 C 4,8 C 4,6 C 3,2 C 0,0 C 85 % 92 % 0 % 1031,1 hPa 0,0 l/m 9,3 km/h (2 Bft) N 0 0 min 0,0 UV-I 2,8 C 0,7 C 10,8 km/h (2 Bft)
25.12.2011 14:25 5,1 C 9,7 C 4,8 C 4,5 C 3,2 C 0,0 C 84 % 92 % 0 % 1031,1 hPa 0,0 l/m 9,8 km/h (2 Bft) W-SW 247 0 min 0,0 UV-I 2,6 C 0,6 C 10,8 km/h (2 Bft)
25.12.2011 14:30 5,1 C 9,7 C 4,9 C 4,7 C 3,1 C 0,0 C 84 % 91 % 0 % 1031,1 hPa 0,0 l/m 10,0 km/h (2 Bft) W 270 0 min 0,0 UV-I 2,6 C 0,4 C 8,0 km/h (2 Bft)
25.12.2011 14:35 5,2 C 9,7 C 4,9 C 4,8 C 3,4 C 0,0 C 84 % 92 % 0 % 1031,1 hPa 0,0 l/m 8,5 km/h (2 Bft) SW 225 0 min 0,0 UV-I 2,7 C 1,1 C 14,0 km/h (3 Bft)
25.12.2011 14:40 5,2 C 9,7 C 4,9 C 4,8 C 3,5 C 0,0 C 84 % 91 % 0 % 1031,1 hPa 0,0 l/m 9,0 km/h (2 Bft) W 270 0 min 0,0 UV-I 2,7 C 1,1 C 10,5 km/h (2 Bft)
25.12.2011 14:45 5,2 C 9,7 C 5,0 C 4,8 C 3,3 C 0,0 C 84 % 91 % 0 % 1031,1 hPa 0,0 l/m 10,1 km/h (2 Bft) W 270 0 min 0,1 UV-I 2,7 C 0,6 C 15,0 km/h (3 Bft)
25.12.2011 14:50 5,2 C 9,7 C 5,0 C 4,8 C 3,4 C 0,0 C 84 % 91 % 0 % 1031,1 hPa 0,0 l/m 10,0 km/h (2 Bft) W-SW 247 0 min 0,0 UV-I 2,7 C 0,7 C 14,2 km/h (3 Bft)
25.12.2011 14:55 5,2 C 9,7 C 5,0 C 4,9 C 3,7 C 0,0 C 84 % 91 % 0 % 1031,1 hPa 0,0 l/m 9,2 km/h (2 Bft) W-SW 247 0 min 0,0 UV-I 2,7 C 1,3 C 13,2 km/h (3 Bft)
25.12.2011 15:00 5,2 C 9,7 C 5,0 C 4,7 C 3,7 C 0,0 C 84 % 91 % 0 % 1031,2 hPa 0,0 l/m 9,2 km/h (2 Bft) W-SW 247 0 min 0,0 UV-I 2,7 C 1,3 C 11,6 km/h (2 Bft)
25.12.2011 15:10 5,3 C 9,7 C 5,2 C 5,0 C 3,9 C 0,0 C 84 % 91 % 0 % 1031,2 hPa 0,0 l/m 9,3 km/h (2 Bft) N 0 0 min 0,0 UV-I 2,8 C 1,5 C 7,1 km/h (2 Bft)
25.12.2011 15:25 5,3 C 9,8 C 5,0 C 5,0 C 3,8 C 0,0 C 84 % 91 % 0 % 1031,2 hPa 0,0 l/m 8,7 km/h (2 Bft) W 270 0 min 0,0 UV-I 2,8 C 1,5 C 8,5 km/h (2 Bft)
25.12.2011 15:30 5,3 C 9,8 C 5,0 C 4,8 C 3,8 C 0,0 C 84 % 91 % 0 % 1031,2 hPa 0,0 l/m 7,9 km/h (2 Bft) W-SW 247 0 min 0,0 UV-I 2,8 C 1,8 C 18,0 km/h (3 Bft)
25.12.2011 15:35 5,3 C 9,8 C 5,1 C 5,0 C 3,7 C 0,0 C 83 % 91 % 0 % 1031,2 hPa 0,0 l/m 8,5 km/h (2 Bft) SW 225 0 min 0,0 UV-I 2,7 C 1,5 C 10,0 km/h (2 Bft)
25.12.2011 15:40 5,3 C 9,8 C 5,0 C 5,0 C 3,6 C 0,0 C 83 % 91 % 0 % 1032,2 hPa 0,0 l/m 9,3 km/h (2 Bft) W-SW 247 0 min 0,0 UV-I 2,7 C 1,2 C 9,8 km/h (2 Bft)
25.12.2011 15:45 5,3 C 9,8 C 5,1 C 5,0 C 3,8 C 0,0 C 84 % 91 % 0 % 1032,2 hPa 0,0 l/m 8,4 km/h (2 Bft) SW 225 0 min 0,0 UV-I 2,8 C 1,6 C 7,2 km/h (2 Bft)
25.12.2011 15:50 5,3 C 9,8 C 4,9 C 5,0 C 3,6 C 0,0 C 84 % 91 % 0 % 1032,2 hPa 0,0 l/m 8,5 km/h (2 Bft) SW 225 0 min 0,0 UV-I 2,8 C 1,4 C 12,7 km/h (3 Bft)
25.12.2011 15:55 5,3 C 9,8 C 5,1 C 4,9 C 4,1 C 0,0 C 84 % 91 % 0 % 1032,2 hPa 0,0 l/m 6,8 km/h (2 Bft) W 270 0 min 0,0 UV-I 2,8 C 2,4 C 7,2 km/h (2 Bft)
25.12.2011 16:00 5,2 C 9,8 C 5,1 C 4,9 C 4,3 C 0,0 C 84 % 91 % 0 % 1031,4 hPa 0,0 l/m 5,5 km/h (1 Bft) W-NW 292 0 min 0,0 UV-I 2,7 C 3,1 C 2,9 km/h (1 Bft)
25.12.2011 16:10 5,2 C 9,8 C 4,9 C 5,0 C 4,7 C 0,0 C 84 % 92 % 0 % 1031,4 hPa 0,0 l/m 4,7 km/h (1 Bft) N 0 0 min 0,0 UV-I 2,7 C 3,9 C 10,5 km/h (2 Bft)
25.12.2011 16:25 5,1 C 9,8 C 4,8 C 4,6 C 3,7 C 0,0 C 84 % 92 % 0 % 1031,4 hPa 0,0 l/m 7,1 km/h (2 Bft) W 270 0 min 0,0 UV-I 2,6 C 1,9 C 9,0 km/h (2 Bft)
25.12.2011 16:30 5,2 C 9,8 C 4,8 C 4,7 C 3,8 C 0,0 C 84 % 92 % 0 % 1031,4 hPa 0,0 l/m 6,6 km/h (2 Bft) W-SW 247 0 min 0,0 UV-I 2,7 C 2,1 C 6,4 km/h (2 Bft)
25.12.2011 16:35 5,2 C 9,8 C 4,8 C 4,8 C 3,3 C 0,0 C 84 % 92 % 0 % 1031,4 hPa 0,0 l/m 8,5 km/h (2 Bft) W-SW 247 0 min 0,0 UV-I 2,7 C 1,0 C 12,7 km/h (3 Bft)
25.12.2011 16:40 5,1 C 9,8 C 4,9 C 4,7 C 3,2 C 0,0 C 84 % 92 % 0 % 1031,4 hPa 0,0 l/m 9,0 km/h (2 Bft) SW 225 0 min 0,0 UV-I 2,6 C 0,8 C 10,3 km/h (2 Bft)
25.12.2011 16:45 5,1 C 9,8 C 4,9 C 4,6 C 3,7 C 0,0 C 84 % 92 % 0 % 1031,4 hPa 0,0 l/m 7,1 km/h (2 Bft) W 270 0 min 0,0 UV-I 2,6 C 1,9 C 5,3 km/h (1 Bft)
25.12.2011 16:50 5,1 C 9,8 C 4,8 C 4,7 C 3,9 C 0,0 C 84 % 92 % 0 % 1031,4 hPa 0,0 l/m 6,4 km/h (2 Bft) SW 225 0 min 0,0 UV-I 2,6 C 2,3 C 10,8 km/h (2 Bft)
25.12.2011 16:55 5,1 C 9,8 C 4,9 C 4,6 C 3,7 C 0,0 C 84 % 92 % 0 % 1031,4 hPa 0,0 l/m 7,1 km/h (2 Bft) SW 225 0 min 0,0 UV-I 2,6 C 1,9 C 9,5 km/h (2 Bft)
25.12.2011 17:00 5,1 C 9,9 C 4,8 C 4,8 C 3,4 C 0,0 C 84 % 92 % 0 % 1032,4 hPa 0,0 l/m 7,9 km/h (2 Bft) W 270 0 min 0,0 UV-I 2,6 C 1,3 C 15,0 km/h (3 Bft)
25.12.2011 17:10 5,1 C 9,8 C 4,9 C 4,5 C 3,4 C 0,0 C 84 % 92 % 0 % 1032,4 hPa 0,0 l/m 7,9 km/h (2 Bft) N 0 0 min 0,0 UV-I 2,6 C 1,3 C 7,7 km/h (2 Bft)
25.12.2011 17:25 5,1 C 9,8 C 4,9 C 4,5 C 3,4 C 0,0 C 84 % 92 % 0 % 1032,4 hPa 0,0 l/m 8,5 km/h (2 Bft) W-SW 247 0 min 0,0 UV-I 2,6 C 1,1 C 7,6 km/h (2 Bft)
25.12.2011 17:30 5,1 C 9,8 C 4,9 C 4,8 C 3,6 C 0,0 C 84 % 91 % 0 % 1032,4 hPa 0,0 l/m 8,0 km/h (2 Bft) N-NO 22 0 min 0,0 UV-I 2,6 C 1,5 C 6,6 km/h (2 Bft)
25.12.2011 17:35 5,2 C 9,8 C 4,8 C 4,7 C 3,6 C 0,0 C 83 % 91 % 0 % 1032,4 hPa 0,0 l/m 8,0 km/h (2 Bft) SW 225 0 min 0,0 UV-I 2,6 C 1,5 C 9,0 km/h (2 Bft)
25.12.2011 17:40 5,2 C 9,8 C 4,8 C 4,8 C 3,4 C 0,0 C 83 % 91 % 0 % 1032,4 hPa 0,0 l/m 8,9 km/h (2 Bft) W-NW 292 0 min 0,0 UV-I 2,6 C 1,0 C 14,5 km/h (3 Bft)
25.12.2011 17:45 5,2 C 9,8 C 4,9 C 4,8 C 3,1 C 0,0 C 83 % 91 % 0 % 1032,4 hPa 0,0 l/m 10,0 km/h (2 Bft) SW 225 0 min 0,0 UV-I 2,6 C 0,4 C 12,9 km/h (3 Bft)
25.12.2011 17:50 5,3 C 9,9 C 4,9 C 4,8 C 3,2 C 0,0 C 83 % 91 % 0 % 1032,4 hPa 0,0 l/m 9,8 km/h (2 Bft) W-SW 247 0 min 0,0 UV-I 2,7 C 0,6 C 11,4 km/h (2 Bft)
25.12.2011 17:55 5,3 C 9,9 C 4,9 C 4,6 C 3,2 C 0,0 C 83 % 90 % 0 % 1032,4 hPa 0,0 l/m 9,8 km/h (2 Bft) S-SW 202 0 min 0,0 UV-I 2,7 C 0,6 C 12,4 km/h (3 Bft)
25.12.2011 18:00 5,2 C 9,8 C 4,9 C 4,8 C 3,3 C 0,0 C 83 % 90 % 0 % 1032,4 hPa 0,0 l/m 9,0 km/h (2 Bft) S 180 0 min 0,0 UV-I 2,6 C 0,9 C 9,5 km/h (2 Bft)
25.12.2011 18:10 5,2 C 9,9 C 4,9 C 4,9 C 4,2 C 0,0 C 83 % 90 % 0 % 1032,4 hPa 0,0 l/m 5,8 km/h (2 Bft) N 0 0 min 0,0 UV-I 2,6 C 2,9 C 4,2 km/h (1 Bft)
25.12.2011 18:25 5,3 C 9,9 C 4,9 C 5,0 C 3,5 C 0,0 C 84 % 89 % 0 % 1033,1 hPa 0,0 l/m 8,4 km/h (2 Bft) SW 225 0 min 0,0 UV-I 2,8 C 1,3 C 13,5 km/h (3 Bft)
25.12.2011 18:30 5,2 C 9,9 C 4,9 C 4,7 C 3,7 C 0,0 C 84 % 89 % 0 % 1033,1 hPa 0,0 l/m 7,6 km/h (2 Bft) W-SW 247 0 min 0,0 UV-I 2,7 C 1,7 C 11,6 km/h (2 Bft)
25.12.2011 18:35 5,2 C 9,9 C 5,0 C 4,9 C 3,6 C 0,0 C 84 % 89 % 0 % 1033,1 hPa 0,0 l/m 7,7 km/h (2 Bft) W 270 0 min 0,0 UV-I 2,7 C 1,6 C 9,0 km/h (2 Bft)
25.12.2011 18:40 5,2 C 9,9 C 5,0 C 4,7 C 3,6 C 0,0 C 84 % 89 % 0 % 1033,1 hPa 0,0 l/m 8,0 km/h (2 Bft) W-SW 247 0 min 0,0 UV-I 2,7 C 1,5 C 5,3 km/h (1 Bft)
25.12.2011 18:45 5,2 C 9,9 C 5,1 C 4,8 C 3,4 C 0,0 C 84 % 89 % 0 % 1033,1 hPa 0,0 l/m 8,7 km/h (2 Bft) S 180 0 min 0,0 UV-I 2,7 C 1,1 C 15,4 km/h (3 Bft)
25.12.2011 18:50 5,2 C 9,9 C 5,1 C 4,8 C 3,3 C 0,0 C 84 % 89 % 0 % 1033,1 hPa 0,0 l/m 9,0 km/h (2 Bft) W-SW 247 0 min 0,0 UV-I 2,7 C 0,9 C 11,9 km/h (2 Bft)
25.12.2011 18:55 5,2 C 9,9 C 5,1 C 4,8 C 3,1 C 0,0 C 84 % 89 % 0 % 1033,1 hPa 0,0 l/m 10,1 km/h (2 Bft) S-SW 202 0 min 0,0 UV-I 2,7 C 0,4 C 13,0 km/h (3 Bft)
25.12.2011 19:00 5,2 C 9,9 C 5,1 C 4,8 C 3,5 C 0,0 C 84 % 89 % 0 % 1033,1 hPa 0,0 l/m 9,0 km/h (2 Bft) W 270 0 min 0,0 UV-I 2,7 C 1,1 C 8,2 km/h (2 Bft)
25.12.2011 19:10 5,3 C 9,9 C 5,0 C 5,0 C 3,8 C 0,0 C 84 % 89 % 0 % 1033,1 hPa 0,0 l/m 7,7 km/h (2 Bft) N 0 0 min 0,0 UV-I 2,8 C 1,8 C 10,0 km/h (2 Bft)
25.12.2011 19:25 5,3 C 9,9 C 5,1 C 5,1 C 4,7 C 0,0 C 84 % 89 % 0 % 1033,1 hPa 0,0 l/m 4,5 km/h (1 Bft) SO 135 0 min 0,0 UV-I 2,8 C 4,7 C 2,7 km/h (1 Bft)
25.12.2011 19:30 5,2 C 9,9 C 5,1 C 5,2 C 5,1 C 0,0 C 84 % 89 % 0 % 1033,1 hPa 0,0 l/m 3,7 km/h (1 Bft) O-NO 67 0 min 0,0 UV-I 2,7 C 5,1 C 3,9 km/h (1 Bft)
25.12.2011 19:35 5,2 C 9,9 C 5,1 C 5,0 C 4,6 C 0,0 C 84 % 88 % 0 % 1033,1 hPa 0,0 l/m 4,8 km/h (1 Bft) W 270 0 min 0,0 UV-I 2,7 C 3,7 C 8,2 km/h (2 Bft)
25.12.2011 19:40 5,2 C 9,9 C 5,1 C 4,8 C 3,9 C 0,0 C 84 % 88 % 0 % 1032,9 hPa 0,0 l/m 6,6 km/h (2 Bft) W-SW 247 0 min 0,0 UV-I 2,7 C 2,3 C 8,5 km/h (2 Bft)
25.12.2011 19:45 5,2 C 9,9 C 5,0 C 4,9 C 3,6 C 0,0 C 84 % 89 % 0 % 1032,9 hPa 0,0 l/m 8,4 km/h (2 Bft) SW 225 0 min 0,0 UV-I 2,7 C 1,4 C 18,5 km/h (3 Bft)
25.12.2011 19:50 5,3 C 9,9 C 5,1 C 4,7 C 3,6 C 0,0 C 84 % 88 % 0 % 1032,9 hPa 0,0 l/m 8,5 km/h (2 Bft) SW 225 0 min 0,0 UV-I 2,8 C 1,4 C 11,4 km/h (2 Bft)
25.12.2011 19:55 5,3 C 9,9 C 5,1 C 4,7 C 3,6 C 0,0 C 84 % 88 % 0 % 1032,9 hPa 0,0 l/m 9,0 km/h (2 Bft) SW 225 0 min 0,0 UV-I 2,8 C 1,2 C 18,5 km/h (3 Bft)
25.12.2011 20:00 5,4 C 9,9 C 5,2 C 5,0 C 3,4 C 0,0 C 84 % 88 % 0 % 1032,9 hPa 0,0 l/m 9,7 km/h (2 Bft) W-SW 247 0 min 0,0 UV-I 2,9 C 0,8 C 10,5 km/h (2 Bft)
25.12.2011 20:10 5,4 C 9,9 C 5,2 C 5,0 C 3,3 C 0,0 C 84 % 88 % 0 % 1032,9 hPa 0,0 l/m 10,6 km/h (2 Bft) N 0 0 min 0,0 UV-I 2,9 C 0,5 C 10,5 km/h (2 Bft)
25.12.2011 20:25 5,3 C 9,9 C 5,2 C 5,0 C 4,3 C 0,0 C 84 % 88 % 0 % 1032,9 hPa 0,0 l/m 6,0 km/h (2 Bft) N 360 0 min 0,0 UV-I 2,8 C 2,9 C 5,3 km/h (1 Bft)
25.12.2011 20:30 5,3 C 9,9 C 5,2 C 5,0 C 4,5 C 0,0 C 84 % 88 % 0 % 1032,9 hPa 0,0 l/m 5,3 km/h (1 Bft) S-SO 157 0 min 0,0 UV-I 2,8 C 3,4 C 8,9 km/h (2 Bft)
25.12.2011 20:35 5,3 C 9,9 C 5,2 C 5,1 C 4,6 C 0,0 C 84 % 88 % 0 % 1032,9 hPa 0,0 l/m 5,1 km/h (1 Bft) O-SO 112 0 min 0,0 UV-I 2,8 C 3,6 C 5,5 km/h (1 Bft)
25.12.2011 20:40 5,3 C 10,0 C 5,2 C 5,1 C 4,7 C 0,0 C 84 % 88 % 0 % 1033,4 hPa 0,0 l/m 5,0 km/h (1 Bft) W-SW 247 0 min 0,0 UV-I 2,8 C 3,7 C 8,0 km/h (2 Bft)
25.12.2011 20:45 5,3 C 9,9 C 5,2 C 5,0 C 4,5 C 0,0 C 84 % 88 % 0 % 1033,4 hPa 0,0 l/m 5,3 km/h (1 Bft) S-SO 157 0 min 0,0 UV-I 2,8 C 3,4 C 8,2 km/h (2 Bft)
25.12.2011 20:50 5,3 C 9,9 C 5,2 C 4,9 C 4,2 C 0,0 C 84 % 88 % 0 % 1033,4 hPa 0,0 l/m 6,1 km/h (2 Bft) O-SO 112 0 min 0,0 UV-I 2,8 C 2,8 C 7,4 km/h (2 Bft)
25.12.2011 20:55 5,3 C 9,9 C 5,2 C 4,9 C 4,2 C 0,0 C 84 % 88 % 0 % 1033,4 hPa 0,0 l/m 6,3 km/h (2 Bft) N-NO 22 0 min 0,0 UV-I 2,8 C 2,7 C 3,5 km/h (1 Bft)
25.12.2011 21:00 5,3 C 9,9 C 5,2 C 4,9 C 4,2 C 0,0 C 84 % 88 % 0 % 1033,1 hPa 0,0 l/m 6,3 km/h (2 Bft) W 270 0 min 0,0 UV-I 2,8 C 2,7 C 7,4 km/h (2 Bft)
25.12.2011 21:10 5,4 C 9,9 C 5,2 C 5,2 C 4,8 C 0,0 C 84 % 87 % 0 % 1033,1 hPa 0,0 l/m 4,8 km/h (1 Bft) N 0 0 min 0,0 UV-I 2,9 C 3,9 C 4,2 km/h (1 Bft)
25.12.2011 21:25 5,5 C 9,9 C 5,2 C 5,2 C 3,8 C 0,0 C 84 % 87 % 0 % 1033,1 hPa 0,0 l/m 8,4 km/h (2 Bft) W-SW 247 0 min 0,0 UV-I 3,0 C 1,6 C 16,4 km/h (3 Bft)
25.12.2011 21:30 5,5 C 9,9 C 5,2 C 4,9 C 3,8 C 0,0 C 84 % 87 % 0 % 1033,1 hPa 0,0 l/m 8,0 km/h (2 Bft) O-NO 67 0 min 0,0 UV-I 3,0 C 1,7 C 12,7 km/h (3 Bft)
25.12.2011 21:35 5,5 C 10,0 C 5,3 C 4,9 C 3,8 C 0,0 C 84 % 87 % 0 % 1033,1 hPa 0,0 l/m 8,0 km/h (2 Bft) W 270 0 min 0,0 UV-I 3,0 C 1,7 C 12,4 km/h (3 Bft)
25.12.2011 21:40 5,5 C 10,0 C 5,2 C 4,9 C 3,8 C 0,0 C 84 % 87 % 0 % 1033,4 hPa 0,0 l/m 8,0 km/h (2 Bft) S-SW 202 0 min 0,0 UV-I 3,0 C 1,7 C 10,6 km/h (2 Bft)
25.12.2011 21:45 5,5 C 10,0 C 5,3 C 5,2 C 3,9 C 0,0 C 84 % 87 % 0 % 1033,4 hPa 0,0 l/m 8,4 km/h (2 Bft) S-SW 202 0 min 0,0 UV-I 3,0 C 1,7 C 14,0 km/h (3 Bft)
25.12.2011 21:50 5,5 C 10,0 C 5,3 C 5,2 C 3,8 C 0,0 C 84 % 87 % 0 % 1033,4 hPa 0,0 l/m 8,5 km/h (2 Bft) W-NW 292 0 min 0,0 UV-I 3,0 C 1,6 C 4,8 km/h (1 Bft)
25.12.2011 21:55 5,5 C 10,0 C 5,3 C 5,1 C 4,2 C 0,0 C 84 % 87 % 0 % 1033,4 hPa 0,0 l/m 7,4 km/h (2 Bft) S-SW 202 0 min 0,0 UV-I 3,0 C 2,4 C 15,0 km/h (3 Bft)
25.12.2011 22:00 5,5 C 10,0 C 5,3 C 5,1 C 4,3 C 0,0 C 84 % 87 % 0 % 1033,4 hPa 0,0 l/m 6,8 km/h (2 Bft) W 270 0 min 0,0 UV-I 3,0 C 2,7 C 9,3 km/h (2 Bft)
25.12.2011 22:10 5,6 C 10,0 C 5,5 C 5,2 C 4,4 C 0,0 C 84 % 87 % 0 % 1033,4 hPa 0,0 l/m 6,9 km/h (2 Bft) N 0 0 min 0,0 UV-I 3,1 C 2,7 C 6,9 km/h (2 Bft)
25.12.2011 22:25 5,6 C 10,0 C 5,5 C 5,4 C 4,9 C 0,0 C 84 % 87 % 0 % 1033,4 hPa 0,0 l/m 5,5 km/h (1 Bft) S 180 0 min 0,0 UV-I 3,1 C 3,8 C 4,2 km/h (1 Bft)
25.12.2011 22:30 5,6 C 10,0 C 5,5 C 5,3 C 4,8 C 0,0 C 84 % 87 % 0 % 1033,4 hPa 0,0 l/m 5,8 km/h (2 Bft) S-SO 157 0 min 0,0 UV-I 3,1 C 3,6 C 3,9 km/h (1 Bft)
25.12.2011 22:35 5,7 C 10,0 C 5,5 C 5,5 C 5,2 C 0,0 C 84 % 87 % 0 % 1033,4 hPa 0,0 l/m 4,8 km/h (1 Bft) S 180 0 min 1,3 UV-I 3,2 C 4,4 C 11,9 km/h (2 Bft)
25.12.2011 22:40 5,7 C 10,0 C 5,4 C 5,6 C 5,3 C 0,0 C 84 % 87 % 0 % 1033,4 hPa 0,0 l/m 4,5 km/h (1 Bft) SO 135 0 min 0,2 UV-I 3,2 C 5,3 C 3,9 km/h (1 Bft)
25.12.2011 22:45 5,7 C 10,0 C 5,5 C 5,6 C 5,3 C 0,0 C 84 % 87 % 0 % 1033,4 hPa 0,0 l/m 4,3 km/h (1 Bft) NW 315 0 min 0,0 UV-I 3,2 C 5,3 C 5,3 km/h (1 Bft)
25.12.2011 22:50 5,6 C 10,0 C 5,5 C 5,6 C 5,5 C 0,0 C 84 % 87 % 0 % 1033,4 hPa 0,0 l/m 4,0 km/h (1 Bft) SO 135 0 min 0,0 UV-I 3,1 C 5,5 C 6,1 km/h (2 Bft)
25.12.2011 22:55 5,6 C 10,0 C 5,5 C 5,4 C 4,9 C 0,0 C 84 % 87 % 0 % 1033,4 hPa 0,0 l/m 5,3 km/h (1 Bft) O-NO 67 0 min 0,0 UV-I 3,1 C 3,9 C 10,0 km/h (2 Bft)
25.12.2011 23:00 5,6 C 10,0 C 5,5 C 5,3 C 4,8 C 0,0 C 84 % 87 % 0 % 1034,2 hPa 0,0 l/m 5,8 km/h (2 Bft) N-NO 22 0 min 0,0 UV-I 3,1 C 3,6 C 4,7 km/h (1 Bft)
25.12.2011 23:10 5,7 C 10,0 C 5,5 C 5,6 C 5,3 C 0,0 C 84 % 87 % 0 % 1034,2 hPa 0,0 l/m 4,3 km/h (1 Bft) N 0 0 min 0,3 UV-I 3,2 C 5,3 C 6,3 km/h (2 Bft)
25.12.2011 23:25 5,7 C 10,0 C 5,6 C 5,6 C 5,4 C 0,0 C 84 % 87 % 0 % 1034,2 hPa 0,0 l/m 4,3 km/h (1 Bft) NW 315 0 min 0,2 UV-I 3,2 C 5,4 C 3,4 km/h (1 Bft)
25.12.2011 23:30 5,8 C 10,0 C 5,7 C 6,0 C 6,0 C 0,2 C 84 % 87 % 0 % 1034,2 hPa 0,0 l/m 3,2 km/h (1 Bft) NO 45 0 min 0,2 UV-I 3,3 C 6,0 C 2,7 km/h (1 Bft)
25.12.2011 23:35 5,9 C 10,0 C 5,6 C 5,8 C 5,6 C 0,0 C 84 % 87 % 0 % 1034,2 hPa 0,0 l/m 4,3 km/h (1 Bft) W-SW 247 0 min 0,3 UV-I 3,4 C 5,6 C 4,8 km/h (1 Bft)
25.12.2011 23:40 5,9 C 10,0 C 5,6 C 5,7 C 5,3 C 0,0 C 84 % 87 % 0 % 1033,9 hPa 0,0 l/m 5,1 km/h (1 Bft) SW 225 0 min 1,1 UV-I 3,4 C 4,4 C 9,3 km/h (2 Bft)
25.12.2011 23:45 5,9 C 10,0 C 5,6 C 5,7 C 5,3 C 0,0 C 84 % 87 % 0 % 1033,9 hPa 0,0 l/m 5,1 km/h (1 Bft) NO 45 0 min 0,0 UV-I 3,4 C 4,4 C 6,8 km/h (2 Bft)
25.12.2011 23:50 5,9 C 10,0 C 5,6 C 5,6 C 5,0 C 0,0 C 84 % 87 % 0 % 1033,9 hPa 0,0 l/m 6,0 km/h (2 Bft) S 180 0 min 0,0 UV-I 3,4 C 3,7 C 14,5 km/h (3 Bft)
25.12.2011 23:55 5,8 C 10,0 C 5,7 C 5,6 C 5,2 C 0,0 C 84 % 87 % 0 % 1033,9 hPa 0,0 l/m 5,5 km/h (1 Bft) NW 315 0 min 0,0 UV-I 3,3 C 4,1 C 5,0 km/h (1 Bft)
_ Min-Zeit 01:55 05:50 01:45 02:15 02:15 00:00 04:30 05:25 00:00 00:00 - 06:00 - - - 00:00 04:00 00:50 02:00
Minimum _ 2,1 C 9,4 C 2,0 C 1,1 C -0,9 C 0,0 C 82 % 85 % 0 % 1029,5 hPa - 2,9 km/h (1 Bft) - - - 0,0 UV-I -0,2 C -3,6 C 0,0 km/h (0 Bft)
_ Max-Zeit 23:35 20:40 23:30 23:30 23:30 23:30 11:10 10:45 00:00 23:00 10:55 13:55 - - 00:00 13:30 23:35 23:30 09:45
Maximum _ 5,9 C 10,0 C 5,7 C 6,0 C 6,0 C 0,2 C 87 % 92 % 0 % 1034,2 hPa 0,7 l/m 12,1 km/h
SW (2 Bft)
- - 0 min 1,4 UV-I 3,4 C 6,0 C 24,3 km/h
S (4 Bft)
Durchschnitt _ 4,2 C 9,7 C 4,0 C 3,7 C 2,5 C 0,0 C 84 % 89 % 0 % 1031,5 hPa #0,7 l/m 6,9 km/h (2 Bft) W-SW - #0 min. 0,4 UV-I 1,7 C 0,8 C 9,1 km/h (2 Bft)
2011 www.wetterstation-wechselburg.de